Temperature
9 8 8 9 9 10 10 10 11 11 12 12 11 11 12 13 13 13 13 14 15 15 15 16 16 15 15 15 15 15 15 15 15 14 14 14 14 14 13 13 13 13 13 12
7 7 8 9 10 10 10 10 10 11 12 12 11 11 11 11 12 13 13 14 14 15 15 15 15 15 15 15 15 15 15 15 14 14 14 14 14 13 13 13 12 12 12 12
7 8 9 9 9 9 10 10 10 11 11 12 11 11 11 11 12 13 14 14 14 14 14 14 15 15 14 14 15 15 14 14 14 14 14 13 13 12 12 12 12 12 12 12
7 9 9 9 9 9 9 10 11 11 10 9 10 9 10 11 11 11 12 13 14 14 14 14 14 14 14 14 14 14 14 14 14 13 13 13 13 12 12 12 12 12 11 11
7 8 9 9 9 10 10 11 10 10 10 9 9 9 9 10 10 11 11 12 13 14 14 14 14 14 14 14 14 14 13 13 13 13 13 13 12 12 12 12 12 11 11 11
7 8 9 9 10 10 10 10 9 8 8 8 9 8 9 9 10 11 10 12 13 13 13 14 14 14 13 13 13 13 13 13 13 13 12 12 12 12 12 11 11 11 11 11
7 8 9 9 9 9 9 8 8 8 7 8 8 9 9 10 10 11 11 12 12 13 13 13 13 13 13 13 13 12 12 12 12 12 12 12 12 12 11 11 11 11 11 11
6 6 7 8 8 8 8 8 7 8 7 7 8 8 9 10 10 11 12 12 12 12 12 12 12 13 13 12 12 12 12 12 12 12 12 11 11 11 11 11 11 11 10 10
5 6 7 8 9 8 8 8 8 7 7 7 7 8 9 10 9 9 10 10 11 11 12 12 12 12 12 12 12 12 11 11 11 11 11 11 11 10 10 10 10 10 10 10
6 6 7 8 8 8 8 8 7 7 7 8 8 8 8 9 9 9 8 9 10 10 11 11 11 11 11 11 11 11 11 11 11 11 11 11 10 10 10 10 10 10 10 9
5 5 6 7 7 7 7 7 7 7 6 7 7 8 9 8 8 8 8 9 9 10 10 10 10 11 11 11 11 11 10 10 10 10 10 10 10 10 10 9 9 9 9 9
4 4 5 5 6 7 7 7 6 6 6 6 6 8 9 7 8 8 8 8 9 9 9 9 9 10 10 10 10 10 10 10 10 10 10 10 9 9 9 9 9 8 8 8
4 4 4 5 5 6 6 6 6 6 5 5 6 8 8 7 7 7 7 8 8 8 9 9 9 9 9 9 9 9 9 9 9 9 9 9 9 9 9 8 8 8 8 7
5 3 4 5 5 4 5 5 6 6 5 5 6 7 7 7 6 6 7 7 7 8 8 8 8 8 8 8 8 8 8 8 8 8 8 8 8 8 8 8 7 7 7 7
3 3 3 4 5 5 5 5 5 5 5 5 6 6 7 6 6 6 6 7 7 7 7 7 7 7 7 7 7 8 8 8 8 8 8 7 7 7 7 6 6 6 6 6
2 2 3 3 4 4 4 5 5 5 6 6 6 6 6 6 5 5 6 6 6 6 6 6 6 6 6 7 7 7 7 7 7 7 7 7 6 6 6 6 5 5 5 5
1 2 2 2 3 4 3 4 4 5 5 5 6 5 5 5 5 5 5 5 5 5 5 5 5 6 6 6 6 6 6 6 6 6 6 6 6 5 5 5 5 5 5 4
1 2 1 1 2 2 3 4 4 4 4 4 5 5 5 5 5 5 5 5 5 5 5 5 5 5 5 5 6 6 5 5 5 5 5 5 5 5 4 4 4 4 4 4
2 1 1 1 1 2 3 3 3 3 3 3 3 3 4 4 4 3 4 4 4 4 4 4 5 5 5 5 5 5 5 5 4 4 4 4 4 4 4 3 3 3 3 3
1 1 0 0 1 2 2 3 3 3 3 2 2 2 2 3 3 2 3 3 4 4 4 4 4 4 4 4 4 4 4 4 4 4 3 3 3 3 3 3 3 2 2 2
0 0 -0 -0 0 1 2 2 3 3 2 2 2 2 2 2 2 2 2 3 3 3 3 3 3 3 3 3 3 3 3 3 3 3 3 3 2 2 2 2 2 2 2 1
0 -0 -1 -1 -0 1 1 1 1 1 2 2 2 2 2 2 2 2 2 2 2 2 3 3 3 3 3 2 2 2 2 2 2 2 2 2 2 1 1 1 1 1 1 1
-0 -0 -1 -0 0 0 1 1 1 2 1 1 1 1 1 1 1 1 1 1 1 1 2 2 2 2 2 2 2 2 1 1 1 1 1 1 1 1 1 1 1 0 0 0
-1 -0 -1 -1 -1 -0 0 1 1 1 1 1 1 1 1 0 0 0 0 0 0 0 1 1 1 1 1 1 1 0 0 0 0 0 0 -0 -0 -0 -0 -0 -0 -0 -0 -1
-2 -1 -1 -1 -1 -1 -0 -0 0 0 0 0 0 -0 0 0 -0 -0 -1 -0 -0 -0 -0 -0 -0 -0 -0 -0 -0 -0 -1 -1 -1 -1 -1 -1 -1 -1 -1 -1 -1 -1 -1 -1
-2 -2 -2 -1 -1 -1 -1 -1 -0 -0 -0 -0 -0 -1 -1 -0 -1 -1 -1 -1 -1 -1 -1 -1 -1 -1 -1 -1 -1 -1 -1 -1 -1 -1 -2 -2 -2 -2 -2 -2 -2 -2 -2 -2
Wind_Speed
5 5 11 14 13 7 6 7 7 7 5 6 10 11 11 8 7 9 9 9 9 9 7 6 6 6 6 6 7 8 8 8 7 6 5 5 4 4 3 3 5 6 6 7
3 10 11 7 8 7 7 6 5 3 3 5 8 11 10 9 9 11 12 12 11 8 5 5 6 6 7 7 8 8 9 9 8 7 6 5 5 4 3 3 3 5 6 6
10 6 8 9 8 10 10 9 7 5 2 1 2 7 8 7 7 7 9 10 10 11 10 8 7 7 7 8 8 9 9 9 8 7 5 4 3 2 1 2 2 3 5 5
8 6 7 9 10 10 10 8 8 6 4 4 4 5 8 7 7 9 9 8 9 9 8 8 8 8 8 8 7 7 8 8 8 8 8 8 6 5 4 4 3 3 4 4
7 6 9 11 11 10 7 5 6 6 6 3 4 4 8 5 8 10 9 9 9 9 9 9 9 9 7 7 6 6 7 7 7 8 9 8 6 5 4 3 4 3 2 3
6 4 6 8 7 8 4 4 2 2 2 6 8 7 7 6 10 8 9 8 9 8 8 8 7 6 5 5 5 6 7 6 7 8 8 9 9 7 6 5 4 3 2 2
3 4 3 4 5 5 5 5 3 2 3 7 6 7 9 8 8 10 11 10 9 8 7 7 7 7 6 6 6 6 7 6 7 7 7 8 9 9 9 7 6 5 3 2
4 5 6 5 6 7 9 9 7 6 6 4 4 8 8 7 5 6 7 7 7 7 7 8 8 8 8 8 7 7 7 6 6 7 7 7 7 6 6 6 6 6 5 4
4 4 3 5 5 8 7 7 5 3 2 2 5 6 6 2 0 2 4 5 7 7 7 7 7 7 7 7 7 8 7 6 5 6 6 6 6 6 6 5 5 4 4 4
2 3 3 2 3 2 5 6 5 5 5 5 5 5 5 4 4 3 3 5 6 5 5 5 5 5 5 5 5 5 6 6 5 5 6 6 5 6 5 5 5 4 4 4
0 2 1 2 6 7 5 5 4 5 4 5 4 6 4 6 6 5 4 4 6 6 5 5 4 4 4 4 4 4 4 4 4 4 5 5 5 5 5 4 4 4 4 4
1 1 2 3 2 3 5 6 6 5 5 4 3 5 4 2 2 3 3 3 3 4 4 4 4 4 4 4 4 4 4 4 4 4 4 5 5 5 5 4 4 4 4 4
0 1 1 0 1 0 3 4 5 3 2 4 4 5 4 3 3 2 2 2 2 3 4 4 4 4 4 4 4 4 4 4 4 4 5 4 5 5 5 4 4 4 4 3
1 1 3 5 3 3 3 4 5 5 4 5 6 6 4 2 2 2 1 2 2 3 3 3 3 3 3 3 3 4 3 3 4 4 5 4 4 4 4 4 4 4 4 3
2 1 2 3 2 2 3 5 6 8 8 6 6 6 6 4 2 1 2 3 3 3 3 3 3 2 3 3 3 3 3 3 4 5 5 4 3 4 4 4 4 3 3 3
2 0 1 2 2 1 3 5 8 9 9 8 5 6 4 1 2 2 2 3 3 2 3 3 3 3 3 3 2 3 3 2 3 4 4 4 4 4 4 3 3 3 3 3
0 1 0 2 3 2 4 5 7 5 6 7 9 7 1 1 1 1 1 2 2 2 2 2 2 2 2 2 3 3 3 3 4 4 4 4 4 4 3 3 3 3 3 2
3 2 1 1 1 3 4 1 2 4 3 2 2 2 3 3 1 1 1 2 2 2 2 2 1 1 1 2 3 3 3 4 4 3 3 3 3 4 3 3 3 3 2 2
4 4 2 2 2 4 4 3 2 2 3 2 1 1 1 1 2 3 3 2 2 1 1 1 2 2 2 2 3 4 4 3 3 3 3 3 3 4 4 3 3 2 2 1
2 3 3 2 2 3 4 6 5 2 2 3 1 1 0 2 2 2 2 2 2 2 2 2 2 3 3 2 3 4 3 3 2 2 2 2 3 4 4 3 3 2 2 1
2 2 3 3 2 4 5 7 2 2 4 4 2 1 1 1 2 2 1 3 3 3 3 3 3 3 2 2 4 4 3 2 1 2 2 2 2 2 3 3 2 2 2 1
3 3 4 3 3 5 4 2 1 2 3 3 2 1 2 2 3 3 3 3 4 4 4 3 3 3 2 2 4 3 2 1 1 2 2 2 1 1 2 3 2 2 2 2
2 3 3 4 4 2 1 1 2 1 1 2 2 2 3 3 3 3 3 3 3 3 3 3 3 3 3 3 3 3 1 1 2 2 2 1 1 1 2 3 2 2 2 2
3 1 2 1 2 2 2 2 3 2 2 2 3 3 3 3 2 3 3 3 3 3 3 3 3 3 3 2 2 2 1 1 2 2 1 1 1 1 1 1 1 2 2 2
3 1 1 2 3 2 3 3 3 4 4 4 4 3 3 3 2 2 2 2 2 3 2 3 3 2 2 2 2 2 2 2 2 1 1 1 1 1 1 0 1 1 2 3
2 2 3 4 3 2 2 2 2 3 3 3 3 4 3 3 2 2 2 2 2 3 3 3 3 3 2 2 2 2 2 2 2 2 1 1 1 1 0 1 2 3 2 2
Wind_Direction
175 180 207 205 202 198 186 188 208 221 221 194 220 239 247 242 223 220 221 217 216 217 218 198 183 171 161 167 168 168 167 170 162 162 163 165 176 177 173 165 154 154 151 149
173 222 217 204 205 219 218 216 218 251 225 206 232 250 248 235 222 216 213 213 212 207 202 192 178 171 172 175 178 176 174 175 174 174 177 177 173 174 176 165 149 153 154 156
203 220 193 196 205 214 224 212 211 211 234 242 248 274 253 249 230 221 214 208 202 197 195 193 185 184 177 182 184 183 180 176 174 166 152 138 118 103 122 151 174 168 158 160
224 236 192 196 208 201 227 214 205 205 184 238 188 255 259 233 235 225 218 210 206 201 194 191 188 185 186 191 185 178 178 175 172 165 162 161 168 175 189 182 179 169 157 158
218 205 193 204 207 193 215 202 200 205 195 237 211 221 273 223 225 229 219 213 210 204 194 192 192 188 185 182 177 175 172 173 171 168 169 167 168 173 167 155 155 161 161 160
231 215 198 201 199 187 165 111 70 59 134 234 215 199 264 223 215 214 216 213 207 202 197 194 188 176 174 169 169 168 167 174 172 168 170 171 170 167 160 163 169 172 167 160
232 230 210 167 163 177 159 137 141 184 215 238 196 203 246 239 221 206 209 210 204 194 186 182 178 177 176 171 172 170 164 173 175 170 173 176 176 173 174 176 177 173 171 179
187 224 209 188 180 180 187 173 176 188 204 242 197 220 248 255 233 208 204 197 185 185 183 182 183 183 181 178 174 169 166 169 174 174 176 176 173 173 178 179 176 179 185 189
188 232 221 201 179 156 169 196 181 143 165 199 235 263 292 291 313 182 172 167 176 182 179 177 178 178 178 176 176 171 166 166 172 176 171 170 171 171 175 176 171 174 174 171
177 224 240 188 119 154 159 157 144 164 178 217 243 239 231 223 233 220 180 174 177 170 165 164 166 167 170 168 164 160 163 167 168 173 176 170 170 171 170 163 165 166 166 158
75 185 246 159 184 182 158 174 168 169 188 182 218 254 227 210 212 199 199 185 170 164 160 157 151 143 138 134 137 140 147 149 149 154 158 155 158 155 147 151 159 161 155 153
231 152 208 245 278 203 182 179 165 177 210 195 193 263 305 237 199 168 167 156 148 143 142 141 138 129 126 128 129 132 135 140 147 148 146 149 143 139 141 147 152 150 147 149
209 150 130 0 317 199 197 192 184 168 161 182 186 254 336 37 60 79 123 130 123 116 109 113 121 126 131 133 130 129 132 141 141 136 137 139 139 142 146 149 143 138 136 135
84 140 191 198 211 179 210 220 197 178 203 211 218 239 298 356 41 40 91 132 130 124 124 120 119 127 130 127 127 128 128 132 134 129 129 138 150 148 145 139 134 133 132 133
84 188 245 269 272 201 221 224 213 210 208 207 227 234 258 250 217 176 137 123 113 114 122 130 133 132 126 115 115 122 122 117 125 127 129 140 137 131 130 131 132 127 126 126
48 207 310 299 284 249 267 251 228 227 222 225 237 256 273 301 69 63 90 125 141 159 161 147 130 128 132 134 135 129 127 125 120 129 135 136 131 130 132 137 133 126 119 116
201 157 170 275 299 348 284 258 227 227 225 214 231 240 227 28 94 131 112 105 119 124 132 140 144 143 145 148 145 149 148 128 121 127 131 135 136 134 136 134 128 129 127 120
190 170 158 267 32 228 248 304 235 224 238 232 225 215 193 196 189 47 84 126 117 106 106 108 107 95 96 101 107 113 112 120 127 130 135 139 138 139 137 137 143 140 137 142
191 171 153 162 223 274 309 336 324 221 276 324 278 250 241 120 57 21 18 72 122 112 104 111 106 102 98 97 106 108 104 110 118 130 141 148 153 152 150 155 162 159 147 151
141 134 139 151 191 242 286 311 312 147 268 334 344 263 203 103 181 242 350 44 74 77 77 79 71 72 75 74 105 110 111 109 120 143 151 145 151 158 166 173 171 160 155 169
147 153 187 185 217 267 296 313 6 141 264 318 315 266 189 191 193 174 60 43 59 61 65 73 74 69 62 87 110 112 111 126 149 128 119 121 134 161 172 168 166 156 145 124
183 178 191 173 203 257 315 34 108 257 317 347 3 20 88 89 88 93 80 65 55 50 51 60 68 53 40 80 112 114 117 116 91 100 108 117 120 158 156 155 160 154 147 138
203 200 180 181 207 272 325 327 310 337 358 357 10 28 87 88 71 67 68 59 55 57 50 52 69 56 35 50 107 121 105 91 102 104 116 128 125 130 153 156 159 156 161 176
305 337 147 189 269 294 353 7 8 26 37 18 35 54 69 78 79 69 70 57 53 51 53 57 65 63 36 38 70 91 80 85 101 108 116 126 131 116 109 149 174 182 196 205
266 267 181 233 273 329 354 12 21 30 44 49 44 45 62 81 63 54 62 51 50 43 40 55 66 58 37 37 44 58 76 99 101 92 90 87 92 104 54 12 239 230 223 220
273 221 203 232 238 220 277 339 21 36 23 31 49 38 39 63 69 53 50 40 48 50 47 52 52 51 30 34 49 56 80 106 114 94 68 63 68 61 61 26 1 357 339 314
Height
1461 1465 1464 1463 1465 1467 1469 1471 1473 1471 1468 1471 1472 1470 1467 1466 1467 1467 1468 1469 1471 1473 1476 1478 1481 1483 1486 1488 1490 1492 1495 1497 1499 1501 1503 1505 1507 1509 1511 1512 1514 1515 1516 1518
1463 1462 1458 1461 1464 1466 1467 1470 1472 1469 1466 1469 1471 1469 1465 1463 1463 1462 1463 1465 1466 1469 1471 1474 1476 1479 1481 1483 1486 1488 1491 1493 1496 1498 1500 1502 1504 1506 1508 1509 1511 1513 1514 1515
1458 1455 1456 1460 1463 1465 1465 1468 1470 1470 1467 1467 1470 1469 1464 1459 1458 1458 1459 1460 1462 1464 1466 1469 1472 1474 1477 1479 1481 1484 1487 1490 1492 1495 1497 1499 1501 1503 1505 1506 1508 1509 1511 1512
1455 1452 1454 1457 1459 1461 1465 1462 1464 1467 1472 1476 1473 1478 1463 1458 1456 1455 1455 1456 1458 1460 1462 1465 1467 1469 1472 1475 1478 1481 1483 1486 1489 1491 1493 1495 1497 1498 1500 1502 1504 1506 1507 1509
1452 1450 1452 1454 1454 1457 1459 1458 1462 1465 1471 1475 1474 1477 1464 1456 1455 1452 1451 1452 1453 1455 1458 1460 1463 1465 1469 1472 1475 1477 1480 1483 1485 1488 1490 1492 1494 1496 1498 1500 1501 1503 1504 1505
1449 1448 1448 1449 1451 1454 1456 1460 1465 1469 1473 1477 1471 1474 1464 1456 1448 1447 1447 1448 1449 1452 1454 1457 1460 1463 1465 1469 1471 1474 1477 1479 1482 1484 1486 1488 1490 1492 1494 1496 1498 1499 1501 1502
1448 1447 1446 1446 1451 1453 1456 1464 1473 1476 1478 1473 1466 1467 1457 1445 1441 1440 1441 1443 1445 1448 1451 1453 1456 1459 1462 1465 1468 1471 1473 1476 1478 1481 1483 1485 1487 1489 1490 1492 1494 1495 1497 1498
1451 1449 1445 1444 1446 1450 1453 1458 1468 1472 1473 1471 1464 1463 1450 1439 1436 1436 1437 1439 1442 1445 1447 1450 1453 1456 1459 1462 1464 1467 1470 1472 1475 1477 1480 1482 1484 1486 1487 1489 1491 1492 1493 1494
1449 1447 1442 1441 1442 1446 1452 1455 1457 1465 1468 1469 1464 1456 1446 1437 1436 1435 1436 1437 1439 1441 1444 1447 1449 1452 1455 1458 1461 1464 1467 1469 1472 1474 1476 1478 1480 1482 1484 1486 1488 1489 1490 1491
1446 1448 1442 1441 1442 1444 1447 1450 1458 1464 1467 1465 1459 1455 1448 1440 1438 1436 1436 1436 1437 1439 1442 1445 1447 1450 1453 1456 1459 1462 1464 1466 1469 1471 1473 1475 1477 1479 1481 1482 1484 1485 1486 1487
1446 1449 1446 1443 1444 1445 1448 1450 1452 1457 1461 1463 1459 1452 1437 1436 1434 1435 1435 1435 1436 1438 1440 1443 1446 1448 1451 1454 1456 1459 1461 1463 1465 1467 1469 1472 1473 1475 1477 1479 1480 1482 1483 1484
1447 1448 1449 1446 1443 1442 1443 1445 1451 1456 1458 1459 1459 1451 1433 1433 1433 1433 1435 1435 1437 1438 1440 1442 1445 1447 1449 1451 1454 1456 1458 1461 1463 1465 1467 1468 1470 1472 1474 1475 1477 1478 1480 1481
1447 1449 1450 1449 1449 1446 1445 1445 1447 1451 1455 1458 1457 1448 1435 1434 1434 1434 1435 1436 1437 1439 1440 1442 1444 1446 1448 1450 1452 1454 1456 1458 1460 1462 1464 1466 1467 1469 1471 1472 1474 1475 1476 1477
1446 1450 1450 1447 1444 1445 1446 1446 1445 1449 1452 1453 1450 1444 1438 1437 1437 1437 1437 1437 1438 1439 1441 1442 1443 1445 1447 1448 1450 1452 1454 1456 1458 1460 1462 1463 1465 1466 1468 1469 1471 1472 1473 1474
1447 1450 1448 1445 1443 1443 1443 1443 1444 1445 1445 1448 1444 1442 1438 1438 1438 1438 1438 1438 1439 1440 1441 1442 1443 1444 1446 1447 1449 1450 1452 1454 1456 1458 1459 1461 1462 1464 1465 1467 1468 1469 1470 1470
1448 1450 1448 1446 1442 1441 1442 1441 1441 1440 1441 1441 1441 1441 1438 1438 1438 1438 1438 1439 1439 1440 1441 1442 1443 1444 1445 1446 1447 1449 1451 1452 1454 1455 1457 1459 1460 1461 1462 1464 1465 1466 1466 1467
1450 1450 1451 1449 1445 1441 1446 1441 1439 1439 1437 1438 1439 1439 1439 1439 1438 1439 1439 1439 1439 1440 1441 1442 1443 1444 1445 1446 1447 1448 1449 1451 1452 1453 1454 1456 1457 1459 1460 1461 1462 1462 1463 1463
1448 1449 1452 1452 1449 1452 1443 1438 1436 1436 1435 1436 1436 1436 1437 1438 1438 1439 1439 1439 1439 1440 1441 1442 1443 1443 1444 1445 1446 1447 1448 1449 1450 1451 1452 1453 1455 1456 1457 1458 1459 1459 1460 1460
1444 1447 1452 1454 1453 1447 1441 1439 1438 1438 1438 1437 1436 1436 1436 1437 1437 1439 1439 1439 1439 1440 1441 1441 1442 1443 1443 1444 1444 1445 1446 1447 1448 1449 1450 1451 1452 1453 1454 1455 1456 1456 1457 1457
1444 1446 1452 1455 1453 1449 1444 1439 1436 1438 1439 1437 1436 1436 1436 1436 1439 1440 1439 1438 1439 1439 1440 1441 1441 1442 1442 1442 1443 1444 1444 1445 1446 1447 1448 1449 1450 1451 1451 1452 1453 1453 1453 1454
1449 1450 1453 1454 1454 1448 1443 1438 1435 1443 1441 1437 1436 1435 1435 1435 1437 1438 1438 1438 1438 1438 1439 1439 1440 1440 1441 1441 1442 1442 1443 1443 1444 1445 1446 1447 1448 1448 1449 1449 1450 1450 1450 1450
1448 1451 1453 1454 1455 1451 1441 1439 1442 1441 1438 1437 1436 1435 1435 1435 1435 1436 1436 1437 1437 1438 1438 1438 1439 1439 1440 1440 1440 1440 1441 1442 1442 1443 1443 1444 1445 1446 1446 1446 1447 1447 1447 1447
1446 1446 1447 1448 1449 1444 1441 1441 1440 1439 1438 1437 1436 1435 1435 1435 1435 1435 1436 1436 1437 1437 1437 1437 1438 1438 1438 1439 1439 1439 1439 1440 1440 1441 1441 1442 1442 1443 1443 1444 1444 1444 1444 1443
1445 1443 1444 1446 1444 1442 1441 1440 1440 1438 1438 1437 1436 1436 1435 1435 1435 1435 1436 1436 1436 1436 1436 1436 1436 1436 1437 1437 1437 1438 1438 1438 1439 1439 1439 1440 1440 1440 1441 1441 1441 1441 1441 1440
1445 1444 1444 1444 1443 1442 1441 1440 1439 1439 1438 1437 1436 1436 1436 1435 1435 1435 1435 1435 1435 1435 1435 1435 1435 1435 1435 1435 1436 1436 1437 1437 1437 1437 1437 1437 1437 1437 1438 1438 1438 1438 1438 1438
1443 1444 1443 1443 1441 1441 1440 1440 1439 1438 1437 1437 1436 1436 1435 1435 1435 1435 1434 1434 1434 1434 1434 1434 1434 1434 1434 1434 1434 1434 1435 1435 1435 1435 1435 1435 1435 1435 1435 1435 1435 1436 1436 1436